{"data":{"norad_id":59353,"intl_designator":"2024-060F","name":"STARLINK-31413","alt_names":[],"object_type":"PAYLOAD","status":"ACTIVE","operator":null,"country":"US","launch_date":"2024-03-31","launch_site_code":"AFETR","launch_vehicle":null,"mission":null,"orbit_class":"UNKNOWN","rcs_meters":null,"size_class":null,"mass_kg":null,"dimensions":null,"purposes":["comms"],"wikipedia_slug":null,"has_3d_model":false,"image_url":null,"decayed_at":null,"tle_current":{"epoch":"2026-09-21T07:31:18.786432Z","epoch_age_seconds":91982,"freshness":"FRESH","line1":"1 59353U 24060F   26264.31341188 -.00000173  00000+0  32212-5 0  9992","line2":"2 59353  43.0032 234.8491 0001120 267.1643  92.9081 15.27576386139982","mean_motion":15.27576386,"eccentricity":0.000112,"inclination_deg":43.0032,"raan_deg":234.8491,"arg_perigee_deg":267.1643,"mean_anomaly_deg":92.9081,"bstar":3.2212e-6,"rev_number":13998,"period_min":94.266971733615,"perigee_km":482.29146362234,"apogee_km":483.8283717319,"semimajor_km":6861.1969176771,"source":"CELESTRAK","updated_at":"2026-09-22T09:00:48.903882Z"}}}